Grissom Arb, IN

6:58 AM EST on February 13, 2016 (GMT -0500)
Grissom Air Reserve Base

Weather History for KGUS - November, 2013

Change the Weather History Date:

Monday, November 18, 2013

  Actual Average Record
Temperature  
Mean Temperature 38 °F -  
Max Temperature 46 °F 46 °F 68 °F (1999)
Min Temperature 31 °F 32 °F 9 °F (2014)
Degree Days  
Heating Degree Days 26    
Moisture  
Dew Point 34 °F    
Average Humidity 78    
Maximum Humidity 96    
Minimum Humidity 58    
Precipitation  
Precipitation 0.00 in - - ()
Sea Level Pressure  
Sea Level Pressure 30.01 in    
Wind  
Wind Speed 19 mph (West)    
Max Wind Speed 28 mph    
Max Gust Speed 36 mph    
Visibility 10 miles    
Events      
Averages and records for this station are not official NWS values.
T = Trace of Precipitation, MM = Missing Value Source: NWS Daily Summary

Daily Weather History Graph

Daily Weather History Graph

Search for Another Location

Airport or City:

Trip Planner

Search our weather history database for the weather conditions in past years. The results will help you decide how hot, cold, wet, or windy it might be!

Date:

Astronomy

Nov. 18, 2013 Rise Set
Actual Time 7:35 AM EST 5:24 PM EST
Civil Twilight 7:05 AM EST 5:53 PM EST
Nautical Twilight 6:32 AM EST 6:27 PM EST
Astronomical Twilight 5:59 AM EST 6:59 PM EST
Moon 6:26 PM EST (11/18) 8:23 AM EST (11/18)
Length of Visible Light 10h 48m
Length of Day
9h 49m
Full, 99% of the Moon is Illuminated
Nov 18
Full
Nov 25
Last Quarter
Dec 2
New
Dec 9
First Quarter
Dec 17
Full

Hourly Weather History & Observations

Time (EST) Temp. Windchill Dew Point Humidity Pressure Visibility Wind Dir Wind Speed Gust Speed Precip Events Conditions
2:55 AM 41.4 °F 32.4 °F 39.0 °F 91% 29.83 in 10.0 mi West 19.6 mph - N/A   Clear
3:55 AM 41.0 °F 32.2 °F 39.2 °F 93% 29.85 in 10.0 mi West 18.4 mph - N/A   Clear
4:55 AM 40.8 °F 32.6 °F 39.6 °F 95% 29.86 in 10.0 mi WSW 16.1 mph - N/A   Partly Cloudy
5:58 AM 40.6 °F 30.4 °F 39.6 °F 96% 29.87 in 10.0 mi West 24.2 mph - N/A   Clear
6:58 AM 38.8 °F 29.4 °F 37.8 °F 96% 29.86 in 10.0 mi West 18.4 mph 23.0 mph N/A   Clear
7:58 AM 38.5 °F 29.9 °F 35.8 °F 90% 29.89 in 10.0 mi West 15.0 mph - N/A   Clear
8:58 AM 39.6 °F 29.7 °F 36.3 °F 88% 29.91 in 10.0 mi West 20.7 mph 28.8 mph N/A   Clear
9:58 AM 41.2 °F 31.1 °F 35.6 °F 81% 29.93 in 10.0 mi West 24.2 mph 32.2 mph N/A   Clear
10:30 AM 42.8 °F 32.9 °F 37.4 °F 81% 29.94 in 10.0 mi West 26.5 mph 33.4 mph N/A   Partly Cloudy
10:58 AM 42.8 °F 33.5 °F 36.3 °F 78% 29.95 in 10.0 mi West 23.0 mph 35.7 mph N/A   Partly Cloudy
11:13 AM 42.8 °F 33.1 °F 37.4 °F 81% 29.96 in 10.0 mi West 25.3 mph 29.9 mph N/A   Mostly Cloudy
11:58 AM 44.1 °F 34.4 °F 35.6 °F 72% 29.96 in 10.0 mi West 27.6 mph 33.4 mph N/A   Mostly Cloudy
12:08 PM 44.6 °F 35.9 °F 35.6 °F 71% 29.97 in 10.0 mi West 23.0 mph 33.4 mph N/A   Scattered Clouds
12:58 PM 44.8 °F 35.7 °F 34.3 °F 67% 29.97 in 10.0 mi West 25.3 mph 33.4 mph N/A   Partly Cloudy
1:58 PM 46.0 °F 37.4 °F 34.3 °F 64% 29.98 in 10.0 mi WNW 25.3 mph 32.2 mph N/A   Partly Cloudy
2:58 PM 45.9 °F 37.4 °F 33.1 °F 61% 30.00 in 10.0 mi WNW 24.2 mph 29.9 mph N/A   Partly Cloudy
3:58 PM 45.3 °F 36.9 °F 31.3 °F 58% 30.03 in 10.0 mi WNW 23.0 mph 32.2 mph N/A   Mostly Cloudy
4:58 PM 43.2 °F 34.5 °F 30.0 °F 60% 30.07 in 10.0 mi WNW 20.7 mph 28.8 mph N/A   Mostly Cloudy
5:58 PM 41.4 °F 33.6 °F 30.0 °F 64% 30.13 in 10.0 mi WNW 15.0 mph 24.2 mph N/A   Mostly Cloudy
6:58 PM 39.7 °F 31.9 °F 30.2 °F 69% 30.16 in 10.0 mi WNW 13.8 mph - N/A   Mostly Cloudy
7:58 PM 37.8 °F 30.2 °F 29.3 °F 72% 30.17 in 10.0 mi WNW 11.5 mph - N/A   Mostly Cloudy
8:58 PM 34.3 °F 29.2 °F 28.8 °F 80% 30.19 in 10.0 mi West 5.8 mph - N/A   Clear
9:58 PM 31.5 °F 24.9 °F 28.2 °F 88% 30.21 in 10.0 mi WNW 6.9 mph - N/A   Clear
10:58 PM 33.4 °F 27.3 °F 29.1 °F 84% 30.22 in 10.0 mi West 6.9 mph - N/A   Overcast
11:58 PM 33.8 °F 27.0 °F 28.8 °F 82% 30.23 in 10.0 mi WNW 8.1 mph - N/A   Mostly Cloudy